GFSGL_500_rhum_057.txt.gz
RH
12 11 11 19 15 14 10 7 5 5 16 14 9 10 11 11 10 9 9 11 11 12 16 7 5 5 6 7 10 11 14 18 21 27 34 44 54 49 40 38 37 28 29
12 13 10 15 17 14 12 9 6 4 7 9 9 10 10 10 10 10 8 7 9 11 15 13 5 5 6 8 10 14 16 20 26 29 24 24 22 23 22 22 26 28 26
7 13 14 12 20 16 13 10 7 4 5 7 13 11 10 10 10 9 7 7 6 9 13 16 6 4 6 10 12 14 17 21 30 35 31 19 17 19 24 28 28 28 29
4 12 14 13 16 20 16 14 9 7 4 6 13 11 10 10 10 9 7 7 7 9 11 15 8 5 7 10 11 12 17 25 32 39 34 20 16 19 24 28 32 31 27
8 10 14 15 14 17 19 17 12 10 6 6 9 10 9 9 10 6 11 14 15 13 11 13 8 4 7 12 16 20 24 31 34 27 18 16 17 21 26 29 28 28 47
15 14 16 13 13 14 14 17 16 11 10 7 9 10 9 9 9 9 15 13 14 14 13 14 8 4 6 11 17 27 27 23 15 16 22 23 25 28 27 39 38 39 37
50 19 14 16 15 11 13 13 13 11 10 9 9 10 10 9 8 13 13 14 18 15 12 9 7 4 5 9 14 24 23 22 26 29 25 25 21 20 30 35 53 61 66
70 54 18 13 15 14 10 10 10 10 11 9 9 9 11 10 7 17 12 15 16 13 10 8 5 4 5 8 18 31 29 29 32 30 21 19 20 30 38 36 32 43 62
77 58 29 14 12 13 12 10 8 8 8 8 6 9 10 10 7 19 14 15 15 14 14 11 6 4 6 10 26 39 32 29 31 30 36 44 46 60 56 34 32 20 35
68 72 62 33 17 11 14 13 8 10 12 10 5 8 9 9 6 18 19 20 17 19 22 22 18 11 9 15 35 48 37 32 27 35 44 66 75 62 55 40 27 25 33
73 89 84 42 60 22 11 11 11 11 11 11 8 10 9 8 6 18 23 22 18 27 33 29 28 26 26 32 41 44 42 59 67 55 60 82 72 71 60 42 30 28 24
75 81 80 63 70 52 13 10 9 9 8 7 16 26 16 6 10 22 26 22 26 33 35 38 39 41 44 48 47 54 63 58 43 65 73 72 80 74 44 33 32 22 22
75 85 85 80 82 68 19 9 8 7 6 7 8 14 6 6 17 28 31 30 36 37 44 52 56 56 57 56 52 63 76 73 82 86 82 91 92 89 62 32 19 16 16
76 79 78 68 82 44 28 8 7 6 8 10 8 6 5 14 28 35 46 47 48 50 58 58 60 60 56 60 62 70 85 87 93 87 90 91 90 88 49 20 14 15 15
71 67 73 61 72 47 40 9 6 9 9 6 4 6 16 30 38 48 59 62 63 61 61 58 63 65 65 62 65 78 86 82 78 87 81 80 74 52 21 16 13 14 18
56 67 78 73 67 48 44 27 6 6 6 5 7 17 30 18 36 54 61 64 68 72 68 58 53 56 67 70 68 74 74 77 83 82 86 72 50 27 15 12 15 21 27
45 57 88 85 71 62 60 48 38 13 10 11 13 72 77 86 72 70 77 84 83 82 76 76 76 74 76 77 78 79 78 82 85 81 62 36 23 14 12 17 24 27 30
29 39 84 83 85 94 65 75 66 43 25 46 86 59 78 85 88 96 93 100 87 80 74 66 61 66 60 60 64 56 58 68 72 50 24 16 15 14 17 24 27 27 26
42 64 78 88 78 78 99 86 91 83 73 48 52 82 100 79 66 87 97 95 86 78 74 75 64 48 50 51 50 51 52 41 22 11 15 18 16 19 26 27 26 23 20
55 81 78 78 86 96 96 85 95 98 97 96 95 94 62 56 72 85 63 66 79 64 66 65 62 53 50 38 23 18 12 9 9 15 14 15 22 27 26 25 23 20 16
94 97 95 99 96 96 98 92 93 89 73 97 91 60 84 74 70 56 48 57 61 66 73 60 35 31 22 15 13 12 11 10 26 23 20 25 25 25 24 23 20 18 16
96 95 96 94 96 91 92 98 91 90 70 73 68 43 55 48 63 60 54 48 49 51 37 36 36 35 30 23 20 19 22 23 24 24 25 25 26 26 24 23 21 19 18
95 94 93 88 77 74 66 60 87 94 94 83 57 60 64 60 52 50 41 38 44 44 38 36 37 37 35 35 33 31 29 30 29 28 29 28 27 27 25 22 20 19 16
95 88 92 72 100 90 79 98 98 90 71 70 72 71 73 76 68 62 58 50 48 52 46 45 40 40 42 41 40 38 37 35 34 33 31 29 28 23 20 18 15 12 11
90 88 94 96 100 84 74 73 73 82 88 91 86 70 60 60 70 76 79 68 66 63 56 49 47 40 38 40 41 40 38 36 34 31 26 24 21 22 20 17 14 13 13
92 96 99 84 88 94 96 97 93 87 99 97 99 100 89 83 72 60 66 81 77 56 50 51 53 53 56 53 50 44 40 38 38 35 33 32 26 26 26 29 26 23 22

GFSGL_500_rhum_060.txt.gz
RH
11 11 19 28 20 12 10 7 5 8 28 16 13 11 9 9 7 10 10 13 11 14 13 12 4 5 5 7 10 12 16 19 26 32 37 50 50 34 34 34 32 33 29
4 11 11 23 21 16 12 9 6 4 6 22 18 12 9 9 8 10 9 8 8 9 11 13 5 4 7 10 15 17 20 19 20 22 24 21 22 24 27 29 28 25 25
8 4 11 11 15 13 17 12 9 5 5 6 14 11 10 10 8 10 10 9 7 7 8 12 11 5 7 12 15 20 23 25 25 24 24 19 18 21 26 25 25 26 25
15 5 4 12 12 10 14 18 12 10 6 4 5 8 10 10 8 10 10 9 8 8 8 9 13 7 5 9 15 19 20 23 25 30 28 19 16 18 23 27 27 26 23
52 19 4 6 14 14 12 19 16 13 9 7 5 5 10 11 9 10 10 8 10 13 12 10 11 12 4 8 12 15 19 25 28 31 24 16 15 15 20 21 28 36 77
48 36 10 4 10 14 14 15 20 16 13 10 8 6 7 9 9 9 10 9 16 13 13 12 12 13 7 6 10 16 22 26 29 16 13 15 16 16 16 20 34 41 46
50 50 24 10 10 14 14 14 15 18 17 15 11 8 7 9 9 9 8 11 14 14 16 14 13 14 8 4 7 14 26 23 16 15 19 16 17 16 14 22 34 43 36
62 47 61 30 12 13 15 12 12 14 15 16 13 10 9 9 10 10 8 11 13 16 17 14 11 8 6 4 6 10 20 23 23 20 20 19 18 22 33 24 18 25 31
69 54 53 51 44 13 12 14 14 10 11 12 12 12 11 10 9 11 9 10 13 14 15 13 11 8 5 4 5 9 21 27 27 25 24 24 37 64 76 50 27 15 18
62 69 60 70 53 29 13 12 13 12 10 9 9 10 11 9 8 9 9 9 17 16 17 15 17 12 8 5 6 11 30 39 30 29 27 41 54 62 70 56 48 31 15
75 85 63 59 65 38 24 14 12 12 11 9 8 8 8 8 6 9 8 7 18 20 20 19 22 22 20 14 10 14 37 44 40 31 44 57 65 75 75 80 72 50 27
76 82 68 66 65 77 47 50 17 11 13 10 8 10 12 11 7 9 8 7 19 22 21 22 30 28 27 27 29 32 34 36 39 50 49 63 78 81 88 83 73 59 22
75 82 80 71 63 78 60 58 53 16 10 11 10 10 10 10 15 16 10 6 18 25 24 27 33 34 38 41 41 41 41 46 53 66 72 81 85 78 83 82 77 52 19
75 81 89 79 69 81 69 57 53 30 12 9 9 8 8 8 20 21 7 5 17 29 27 32 37 40 41 49 48 50 54 57 63 75 82 82 91 86 84 86 71 35 17
73 71 84 83 82 65 69 57 68 43 20 8 8 7 8 7 8 12 5 8 26 34 36 37 41 46 50 56 61 61 62 63 61 77 78 76 79 84 85 83 54 27 16
52 60 81 84 84 78 63 53 66 54 36 8 7 10 10 9 8 6 5 17 34 43 48 51 54 58 64 71 76 74 72 70 74 77 81 84 82 83 79 53 32 18 12
12 46 78 92 87 83 75 51 62 59 47 22 7 8 8 6 5 10 15 21 43 54 60 66 70 74 72 72 69 70 76 78 80 78 80 68 68 69 68 36 19 12 13
6 7 32 72 80 80 82 62 69 68 59 54 18 6 7 6 10 16 16 17 30 46 65 70 72 78 81 81 79 77 75 73 70 70 60 56 56 58 36 15 15 14 17
6 5 10 29 40 68 83 82 81 76 79 62 53 29 23 43 45 63 84 98 84 76 86 92 85 78 82 79 73 70 76 78 64 62 54 42 42 25 10 11 15 16 26
33 29 33 24 41 59 67 91 86 84 77 87 75 65 59 54 75 87 98 100 99 100 91 98 88 79 84 83 79 80 72 72 55 48 35 24 13 11 14 18 18 25 25
98 71 62 67 57 76 96 76 92 96 80 87 94 94 90 86 92 80 84 93 90 50 69 85 97 80 90 83 72 76 67 54 36 20 13 13 13 23 30 24 26 27 26
56 70 86 93 83 83 79 82 96 96 97 98 94 91 94 94 84 90 67 74 85 93 90 81 75 72 66 75 62 40 40 34 26 21 21 24 27 30 32 31 30 30 29
74 69 79 95 96 90 81 96 80 99 89 82 93 95 93 64 62 45 53 46 49 70 99 87 69 58 48 45 38 33 35 35 34 33 33 36 35 35 35 35 34 32 28
79 75 77 78 88 85 91 97 97 96 94 90 88 75 90 88 51 62 67 85 93 91 61 47 42 43 40 40 42 44 38 37 37 39 37 35 37 37 36 36 34 28 23
88 95 91 87 87 91 89 89 96 96 97 97 98 93 96 92 76 70 67 70 62 62 60 60 59 57 60 64 62 58 58 53 46 41 38 38 37 36 36 36 36 36 35
99 98 96 96 97 96 96 95 97 94 97 99 96 97 94 88 75 82 88 76 68 74 80 82 83 82 74 58 56 57 55 54 54 55 54 52 48 44 46 43 40 40 42

GFSGL_500_rhum_063.txt.gz
RH
10 10 17 23 18 10 8 10 15 21 18 11 13 10 10 8 8 11 9 12 11 14 12 9 6 5 7 10 13 13 17 27 34 38 47 49 42 30 33 29 31 29 28
3 9 10 17 24 20 11 8 6 8 14 22 20 16 13 9 8 8 10 9 8 8 10 12 8 5 6 10 16 16 17 18 20 25 25 20 19 22 25 26 27 33 31
17 4 6 10 13 23 24 13 10 7 5 6 15 22 16 10 9 8 10 10 8 8 8 8 12 7 4 8 16 20 22 20 18 20 21 19 17 17 21 27 28 30 31
46 16 8 4 11 12 22 19 13 10 8 4 4 5 11 10 9 9 9 10 10 10 9 8 9 11 5 6 12 17 22 23 23 21 25 20 15 16 19 24 28 28 28
56 46 20 7 4 10 13 13 15 16 13 9 5 4 4 6 9 9 8 10 10 8 13 12 9 10 10 6 7 14 20 21 23 26 30 24 14 15 16 20 22 33 51
55 65 50 14 4 4 11 12 10 17 16 13 10 7 4 4 7 10 7 9 10 10 15 15 12 10 12 10 6 10 13 16 23 28 28 19 13 14 15 16 13 14 23
63 70 58 36 10 4 6 11 13 13 19 16 14 10 9 5 6 8 7 7 8 10 14 16 14 12 12 12 6 7 12 19 21 25 17 12 13 13 17 18 18 20 16
66 73 70 53 40 9 5 10 13 13 15 20 19 14 11 10 6 7 8 7 7 9 14 18 17 14 13 10 6 5 7 15 24 21 16 14 20 20 18 19 29 41 52
47 67 82 71 59 37 11 12 13 12 12 15 16 18 17 13 10 8 9 9 8 8 15 17 17 13 10 8 6 5 5 10 22 20 18 20 23 25 27 32 57 64 64
31 51 84 79 70 56 48 14 11 13 11 9 12 14 15 14 11 9 8 9 10 9 16 14 17 14 13 12 7 5 4 8 16 22 25 28 32 42 49 63 69 45 31
47 43 68 78 79 73 63 39 18 11 12 12 9 9 10 11 10 10 10 9 8 10 14 18 17 19 19 17 13 10 5 8 21 37 38 38 36 55 60 77 83 88 82
62 30 62 80 85 72 57 56 28 15 11 11 11 10 9 8 8 8 8 8 7 9 10 18 20 21 23 21 20 17 10 11 23 38 38 41 62 72 73 80 85 79 76
20 31 52 76 93 87 60 78 73 34 15 11 11 12 10 8 10 12 12 9 6 9 8 12 13 22 24 26 25 22 20 21 30 35 39 50 70 85 86 82 78 73 75
11 26 46 71 85 96 82 67 64 56 36 20 12 11 12 11 10 11 11 10 9 10 8 9 14 23 26 28 30 30 31 32 35 38 48 63 74 74 75 76 74 67 74
17 19 34 52 78 88 87 76 70 76 58 42 34 16 10 10 10 10 8 11 24 22 12 9 10 23 28 31 34 34 39 43 47 50 54 60 62 74 81 76 77 74 75
18 23 18 32 71 81 85 88 76 65 72 68 68 43 15 9 8 11 9 10 16 18 16 8 12 22 29 34 37 41 43 47 56 59 64 68 75 80 78 80 76 63 66
14 21 28 29 50 76 77 79 71 66 65 63 72 65 47 16 8 7 8 10 9 8 9 9 17 24 34 38 41 48 55 63 62 71 82 83 80 71 75 76 59 52 52
20 19 30 46 33 46 65 65 78 69 78 69 56 75 57 37 9 9 11 10 8 7 7 14 24 33 47 53 57 61 63 61 64 73 66 62 68 70 67 53 50 46 40
24 29 39 53 32 31 44 58 77 90 87 86 68 65 76 59 39 7 8 7 7 9 19 39 55 60 68 76 85 95 93 80 76 68 69 73 73 76 71 56 52 38 23
22 21 30 31 23 17 16 49 83 92 96 97 89 77 79 77 57 43 17 16 18 31 51 68 68 92 97 85 80 88 96 78 91 70 78 75 73 74 68 50 35 17 11
42 23 15 11 7 7 15 20 65 84 90 100 93 88 82 88 57 70 63 48 43 53 62 50 55 97 95 94 99 94 97 86 80 81 91 86 79 66 49 27 15 13 18
46 36 34 32 34 30 39 42 42 54 53 66 75 93 94 94 96 93 63 54 49 43 41 45 45 55 82 85 96 96 91 83 80 73 74 50 41 39 33 24 21 24 26
70 56 48 76 96 96 88 84 86 83 76 79 78 88 96 98 97 94 94 75 64 68 75 85 75 64 81 91 95 76 84 86 61 56 49 37 38 37 35 34 33 33 32
77 96 94 96 80 84 93 94 95 96 95 96 99 97 96 98 80 89 96 92 80 72 52 68 58 60 95 97 79 88 86 60 51 47 43 31 34 36 38 48 48 42 38
66 59 94 96 98 89 96 97 96 96 94 95 96 96 97 96 96 92 97 80 56 49 56 53 51 56 45 56 57 73 66 54 49 46 48 53 49 57 64 62 58 56 54
88 91 93 82 83 90 78 76 82 90 94 87 83 88 90 96 96 97 95 88 76 70 56 54 59 54 44 46 52 60 69 71 66 65 62 58 58 57 55 57 54 51 49

GFSGL_500_rhum_069.txt.gz
RH
6 8 11 15 15 15 17 20 22 20 17 16 14 10 10 9 13 10 9 12 16 12 8 5 6 9 12 12 14 20 22 24 24 24 24 24 19 19 24 26 28 30 28
12 7 7 9 14 14 14 15 19 23 21 17 14 12 11 11 10 10 10 11 9 8 9 12 8 5 6 12 13 15 22 25 22 19 19 16 15 18 20 22 24 26 28
40 13 10 11 14 16 14 12 13 14 16 20 22 14 13 12 12 10 9 11 9 9 9 8 9 9 6 8 13 15 16 17 22 22 20 16 15 16 16 18 20 22 22
37 29 11 12 15 23 26 16 12 12 11 10 12 22 21 18 16 13 11 10 11 10 11 10 9 8 10 6 8 16 18 19 16 15 16 16 14 14 14 15 16 19 18
34 33 16 10 13 15 26 32 26 16 16 12 9 7 10 19 22 18 13 10 10 11 11 11 10 10 9 10 7 8 15 18 21 22 20 16 16 15 14 14 14 15 16
48 37 35 9 7 13 13 18 27 31 27 18 14 10 7 6 10 15 15 12 10 9 11 11 10 11 13 9 9 9 7 11 16 19 20 20 16 19 20 13 14 15 20
64 43 35 37 8 5 12 13 17 20 28 27 20 15 11 8 7 7 7 9 10 10 8 10 10 11 15 14 11 10 11 8 9 14 19 20 22 23 26 19 14 15 16
63 45 32 34 30 27 5 6 12 14 15 25 23 19 16 14 11 9 8 5 5 9 12 9 9 10 13 16 14 12 12 12 10 8 12 15 15 18 25 19 13 16 20
50 40 41 43 36 24 15 9 5 7 12 13 21 16 18 20 18 14 10 8 6 6 10 10 9 10 11 15 19 18 16 15 14 11 8 10 16 19 18 17 17 20 28
55 46 45 57 54 44 32 17 6 13 7 12 13 12 11 17 20 18 15 11 9 7 7 8 10 11 10 13 16 20 20 19 12 9 7 7 12 19 19 18 20 22 32
62 50 58 51 62 64 49 31 12 9 5 6 12 12 13 13 17 20 19 16 13 12 12 9 10 11 12 10 13 15 19 20 15 13 8 6 7 9 20 21 20 29 38
79 71 81 64 70 77 68 59 35 15 7 4 9 14 14 14 16 17 19 20 20 17 16 14 12 13 12 12 10 14 17 18 18 18 14 6 6 6 13 22 25 37 37
94 97 95 95 78 85 87 70 74 50 21 10 13 13 15 16 15 16 16 17 17 16 17 16 16 16 13 10 10 10 17 19 18 18 17 13 10 9 10 30 34 43 37
95 85 92 57 71 89 90 84 100 70 53 46 36 15 21 20 17 18 16 15 13 12 13 14 14 15 14 10 8 9 10 18 21 20 20 21 17 13 12 26 36 41 39
61 76 69 64 94 74 88 92 98 79 63 71 58 45 44 28 24 15 16 16 15 12 11 12 10 10 10 11 8 9 10 12 22 22 19 24 24 21 18 31 39 42 45
59 42 63 73 84 94 95 80 91 95 63 88 61 65 62 48 36 25 22 15 16 15 17 14 13 14 15 13 10 12 11 9 15 24 20 23 28 27 29 40 44 50 56
90 46 36 31 74 85 86 89 89 97 96 78 70 60 73 72 63 45 59 70 38 19 14 16 14 14 14 21 21 18 16 12 11 15 24 21 28 33 37 42 47 50 59
49 53 61 72 66 92 81 64 74 73 95 93 82 66 63 62 76 71 75 90 82 62 34 38 45 33 25 25 30 36 36 27 16 13 18 22 22 32 42 51 60 61 60
48 61 64 89 82 74 73 78 74 71 77 93 83 87 80 77 68 72 87 89 98 91 91 56 59 59 43 27 24 19 24 16 12 12 22 27 23 25 34 43 69 75 76
73 90 77 93 79 81 85 88 69 65 74 71 80 82 91 91 85 88 91 93 91 78 82 77 81 68 68 30 24 26 20 18 16 21 30 37 56 58 61 70 72 91 93
54 63 69 83 72 65 39 20 22 36 40 39 52 74 81 87 78 88 97 100 94 87 92 80 93 67 80 68 62 30 29 43 64 70 84 83 88 94 96 96 94 95 96
15 41 71 90 70 55 36 30 22 14 13 23 26 27 47 64 65 67 89 99 99 93 92 86 96 92 100 92 84 78 64 56 65 83 86 89 91 86 89 93 89 97 95
6 10 37 58 84 56 41 34 21 15 23 28 23 22 24 32 45 54 62 72 74 88 96 91 86 94 94 100 96 90 84 70 74 68 65 68 71 66 62 72 95 95 95
9 8 9 12 34 81 67 46 30 25 36 36 26 23 22 26 31 42 74 81 63 62 72 89 95 97 91 92 92 85 93 80 72 75 66 59 62 63 77 86 86 90 84
11 11 12 10 12 20 36 49 38 34 28 25 19 18 20 28 60 89 86 59 69 70 76 82 87 95 97 100 90 97 92 80 87 79 75 77 81 74 84 86 86 84 73
12 12 9 8 10 17 25 29 37 33 21 20 11 11 18 28 44 62 82 95 90 82 79 81 91 84 85 97 96 97 97 94 97 92 81 80 90 90 89 87 88 83 66

GFSGL_500_rhum_075.txt.gz
RH
25 21 17 18 16 19 25 33 35 27 25 38 42 26 24 39 25 23 25 12 5 4 4 7 12 12 12 16 18 21 26 29 29 25 25 24 21 19 18 19 20 23 25
15 27 25 15 15 15 20 26 32 32 26 36 33 18 24 34 20 30 22 11 22 11 4 4 5 11 12 13 16 19 21 23 25 24 22 22 18 18 16 16 17 18 20
6 8 16 17 14 14 15 18 23 28 28 28 21 17 14 12 19 13 9 26 12 9 8 9 8 5 10 12 13 15 18 21 22 21 21 21 17 16 15 14 14 13 14
11 10 9 11 12 13 12 12 16 20 23 25 20 16 15 13 12 11 10 10 11 10 10 10 9 8 7 6 11 13 14 15 14 16 18 17 17 14 14 13 13 12 13
26 9 12 13 8 10 12 12 11 13 17 19 20 18 18 19 15 14 13 12 9 10 11 11 12 12 11 9 8 7 10 14 15 16 15 14 13 12 11 12 16 16 16
73 40 38 30 12 7 8 10 12 11 10 13 14 15 16 16 21 21 19 16 15 12 9 10 11 12 12 11 12 11 9 9 8 14 17 18 19 18 16 16 17 18 24
87 88 61 38 23 14 10 7 9 11 13 11 10 10 11 12 12 12 16 21 22 20 16 11 9 10 11 11 11 12 13 12 10 10 10 9 10 12 14 17 20 21 21
97 97 95 82 65 40 26 13 10 10 12 16 14 10 10 10 10 10 9 8 8 14 17 15 12 10 9 10 11 11 11 15 15 12 11 11 11 11 9 9 10 14 14
98 91 96 93 78 64 54 39 22 12 10 11 17 21 19 18 17 14 12 10 8 7 6 7 7 8 9 10 9 10 10 10 15 19 19 16 14 14 13 14 10 8 10
65 96 86 81 90 77 70 70 67 40 22 11 11 13 18 23 27 29 28 19 12 11 10 7 7 6 6 6 8 8 9 11 12 14 18 21 22 19 16 13 9 7 6
45 52 77 98 97 86 81 72 72 62 51 30 12 10 14 13 15 18 24 25 24 18 14 14 13 11 9 7 6 7 8 9 9 10 12 15 19 21 20 17 16 13 7
39 42 43 60 96 98 92 82 78 75 69 69 50 38 38 31 20 15 16 16 20 24 24 20 21 20 17 12 9 7 7 8 9 10 10 11 14 16 18 19 20 19 16
32 41 44 51 72 97 96 85 87 94 91 83 54 44 64 64 41 16 16 16 16 15 20 16 14 19 22 22 19 14 10 9 9 9 10 11 11 12 15 16 18 19 21
54 41 30 41 58 89 96 98 100 94 95 87 63 60 65 56 40 23 8 11 14 12 17 16 13 12 14 19 21 22 20 17 16 14 13 12 11 10 10 10 14 17 17
59 55 30 37 46 78 76 69 97 92 97 82 79 79 63 52 50 31 13 12 19 32 16 16 18 18 16 16 18 18 18 18 17 16 14 13 12 12 10 8 8 9 10
57 63 60 41 43 65 78 88 88 96 92 87 95 79 92 73 78 43 25 34 61 75 40 15 18 32 27 19 28 26 17 14 14 13 12 10 9 10 11 9 8 8 8
17 48 62 58 53 59 57 46 64 86 91 75 91 97 87 85 99 100 71 55 84 94 63 39 54 67 49 50 53 41 22 19 19 17 14 12 12 11 12 14 16 14 11
11 15 35 47 56 60 52 40 70 94 82 83 96 90 81 93 96 99 96 76 86 84 84 77 79 89 82 77 60 37 22 15 14 13 12 14 15 17 19 24 27 28 30
5 10 15 42 50 62 64 49 68 85 88 88 90 96 96 85 79 91 97 96 96 98 87 82 78 75 63 63 57 56 46 34 25 23 30 33 44 42 38 35 28 26 25
6 5 9 14 40 68 64 66 56 64 79 73 81 96 92 83 89 73 88 95 96 94 96 96 95 85 72 69 62 53 43 38 41 44 52 66 80 79 62 45 32 24 22
10 7 5 9 13 36 64 66 68 68 69 96 90 80 83 72 94 96 96 97 95 96 99 95 86 82 86 76 65 55 66 65 53 45 50 70 81 82 81 74 62 68 62
32 19 6 5 9 13 33 50 52 75 84 87 82 63 70 62 45 53 66 76 86 93 87 92 93 89 85 80 71 73 67 60 70 77 78 87 81 76 81 86 81 75 76
40 28 24 6 5 10 12 27 48 46 57 59 56 51 60 74 46 43 51 77 70 94 97 94 96 94 95 86 82 86 85 91 91 79 70 71 68 75 86 81 79 88 86
54 52 35 21 6 6 10 11 16 41 52 49 36 62 83 87 68 59 58 95 98 96 83 83 86 76 68 72 73 66 66 71 65 50 59 62 68 70 62 67 83 96 93
59 78 72 34 22 7 7 9 10 14 31 51 50 73 94 74 73 61 60 68 97 96 91 89 73 44 36 49 47 34 31 32 24 24 32 40 69 92 96 91 94 90 85
60 65 70 63 35 18 8 7 7 8 13 36 55 60 69 82 67 38 49 84 94 91 72 50 23 21 29 30 28 26 25 30 29 55 67 76 70 51 88 97 97 95 89

GFSGL_500_rhum_078.txt.gz
RH
18 22 21 22 27 25 29 32 30 30 31 22 28 31 42 28 19 23 24 6 9 17 7 11 12 12 12 15 18 20 23 28 29 24 21 17 13 13 15 17 18 20 20
14 21 18 16 19 22 23 27 30 32 27 22 30 37 36 39 34 25 31 15 21 11 7 5 11 12 11 13 15 18 19 24 24 25 20 15 11 12 14 15 16 16 16
10 13 22 16 15 17 17 20 28 31 27 20 28 38 40 33 34 26 25 19 26 21 12 5 4 7 12 12 13 14 16 18 20 20 18 15 12 11 13 14 14 14 12
16 9 11 25 24 18 16 15 18 27 29 24 24 32 20 33 21 25 11 25 25 16 19 9 8 8 6 7 11 12 13 14 14 16 16 14 12 12 12 12 12 11 12
44 38 17 10 16 27 29 27 15 16 22 27 24 25 22 15 14 15 11 12 24 23 14 10 11 12 11 9 8 7 8 12 14 15 16 16 14 11 10 11 13 14 13
27 31 27 16 9 8 12 17 20 15 14 16 21 24 24 16 14 16 14 14 15 14 13 10 10 11 12 12 12 12 11 10 9 8 10 14 16 16 15 16 17 19 21
44 45 38 25 24 15 12 10 10 12 13 13 14 15 16 18 17 16 18 18 18 19 18 18 13 9 10 11 12 12 12 12 13 11 10 9 9 8 8 8 8 10 14
77 66 61 50 65 68 40 27 15 9 9 11 12 13 13 13 13 14 14 13 12 14 17 20 19 17 12 9 9 10 11 11 11 14 14 12 12 12 12 12 13 10 7
88 91 93 91 79 84 75 45 27 17 11 8 8 10 12 14 13 12 11 10 10 10 10 8 8 11 14 14 9 8 9 10 11 12 13 17 20 19 17 14 14 12 9
75 70 60 56 84 87 88 83 75 57 40 28 18 10 10 12 16 20 19 14 12 14 14 13 12 9 8 7 6 6 6 11 9 9 10 11 12 17 21 21 19 16 15
63 74 65 58 61 75 96 77 66 79 75 68 52 35 22 12 12 13 19 22 23 25 25 25 18 15 12 10 10 8 6 7 7 7 7 8 9 11 13 16 18 18 19
36 47 67 58 46 53 60 87 95 76 84 88 88 80 69 47 21 12 11 12 14 14 17 22 28 26 20 18 15 13 11 9 6 6 8 8 9 9 9 10 12 14 16
14 20 38 56 57 51 46 52 59 76 85 79 89 81 83 71 40 42 37 29 32 22 17 15 16 17 26 25 22 20 19 15 14 12 12 11 10 9 9 9 9 9 10
23 19 16 23 31 38 42 47 43 49 52 89 88 78 81 81 88 77 49 51 60 54 33 22 16 12 13 16 20 14 14 18 20 20 20 18 17 14 12 12 11 11 11
17 20 22 22 19 17 28 34 39 39 37 50 82 86 78 73 91 91 92 63 68 67 64 35 28 24 21 14 14 15 15 16 15 16 20 20 18 17 16 14 12 11 10
15 20 18 18 17 16 17 24 26 28 25 39 89 86 97 79 82 88 85 69 74 78 91 62 43 34 43 28 15 17 19 21 18 19 22 18 15 14 14 12 11 9 9
3 5 15 20 19 16 18 18 18 48 37 27 56 88 97 96 89 90 84 64 78 84 91 64 32 73 88 30 17 22 32 32 23 25 27 22 16 19 18 14 12 10 10
6 4 4 6 17 21 19 20 20 22 44 30 42 67 82 97 92 88 96 79 81 69 98 78 67 74 90 53 54 66 68 64 58 50 40 29 19 14 13 12 14 16 17
17 14 6 4 5 12 20 20 23 24 31 30 41 78 65 56 69 85 88 90 97 88 84 90 81 74 89 73 79 85 92 94 86 70 54 42 33 29 37 48 51 59 52
24 27 26 8 6 5 8 17 20 24 31 38 36 54 64 48 53 59 71 91 97 90 84 87 96 85 83 88 70 71 80 80 78 71 58 51 40 36 39 56 62 78 80
32 27 32 32 8 7 6 6 14 19 31 37 50 49 54 46 52 82 58 74 96 97 92 92 81 86 96 97 93 84 80 77 80 82 69 74 52 47 43 45 46 53 68
43 43 45 44 31 12 8 6 5 12 16 34 42 60 59 57 98 92 75 76 74 79 98 92 80 68 73 94 96 89 87 76 77 84 87 78 69 68 70 68 71 71 64
45 40 36 40 48 35 13 9 6 5 10 13 22 27 49 61 69 79 70 71 82 87 83 75 70 98 94 95 97 96 94 95 84 86 93 96 89 85 84 60 53 72 72
47 47 37 31 31 48 43 15 10 6 5 8 12 15 22 50 63 66 74 85 94 80 72 54 33 47 66 80 85 80 96 94 96 92 80 75 70 67 50 50 54 49 44
45 44 45 46 42 56 48 47 23 10 6 4 7 11 16 35 50 68 91 92 92 84 79 76 51 57 70 94 88 90 89 89 80 70 56 44 46 41 32 32 31 40 58
48 52 51 52 46 48 52 54 50 27 10 5 4 7 11 13 48 54 86 96 89 90 79 61 71 60 65 66 94 92 92 70 37 24 28 28 26 26 37 38 45 41 39

GFSGL_500_rhum_084.txt.gz
RH
8 11 14 19 23 24 22 22 31 29 21 41 70 35 28 33 30 31 20 24 29 20 14 28 20 11 13 14 16 16 17 19 21 26 21 16 13 13 13 14 16 16 17
8 6 8 13 18 23 23 23 26 33 22 17 31 28 32 41 33 39 31 14 30 29 15 13 17 10 10 11 13 16 16 15 13 11 12 12 12 11 11 12 14 14 14
16 12 13 9 14 19 20 20 24 28 32 25 24 31 32 40 34 41 36 32 23 25 17 17 9 6 15 16 10 10 10 12 12 12 11 10 9 9 9 10 11 12 12
46 58 17 17 11 17 19 23 21 23 26 31 32 32 31 42 42 43 38 35 30 30 33 20 10 7 6 13 12 12 12 11 10 10 10 9 9 8 9 9 11 10 10
68 89 50 56 20 14 19 22 26 20 19 23 30 33 31 27 36 42 36 26 37 41 30 25 14 9 9 8 8 7 8 10 11 13 10 10 11 12 11 11 12 14 15
80 89 67 97 39 24 26 32 38 24 26 17 18 28 30 28 26 33 25 25 20 20 36 29 19 14 10 11 12 12 12 13 14 12 10 9 7 7 7 7 7 7 8
96 92 90 79 79 48 37 38 40 35 30 23 20 21 22 27 29 25 28 19 14 22 29 28 31 30 16 13 12 10 10 10 10 11 12 13 13 10 10 10 11 11 11
93 95 96 95 87 53 54 54 43 43 40 30 23 20 24 19 22 23 25 25 20 15 15 21 26 24 20 17 21 24 19 12 10 8 8 9 10 12 14 17 18 16 16
49 47 43 52 64 69 57 50 51 46 33 28 33 33 29 22 20 18 18 32 24 23 19 18 19 21 21 19 16 14 12 12 11 9 8 8 7 7 10 12 14 17 20
33 27 24 23 16 24 59 74 64 50 41 49 66 77 52 36 57 20 21 20 18 17 17 18 17 16 15 13 11 10 9 11 7 6 6 7 6 6 6 7 8 10 12
12 12 12 13 13 10 10 20 59 80 79 87 77 80 79 89 90 77 23 24 30 13 13 13 13 14 13 12 11 10 11 11 10 8 6 7 7 6 6 5 5 6 7
14 13 12 10 9 8 8 8 9 26 61 68 71 73 70 68 83 82 71 56 41 38 31 18 15 18 17 12 12 13 16 18 16 13 11 11 11 10 7 6 6 6 6
17 17 17 16 15 13 12 9 7 6 9 25 46 72 73 68 61 74 94 97 67 76 76 54 38 17 17 25 34 27 24 22 22 22 24 17 15 15 13 12 11 12 11
21 20 19 18 17 15 15 14 13 10 8 7 11 12 24 30 31 80 99 92 94 94 87 74 73 55 47 26 14 16 25 18 14 13 16 21 22 21 19 18 17 16 15
25 25 26 24 21 20 19 17 16 15 14 12 10 9 8 12 17 21 68 90 77 92 91 96 96 85 93 79 49 42 36 37 31 19 11 11 12 13 17 19 16 15 15
5 6 9 12 17 23 24 24 22 20 18 16 15 14 12 9 10 9 12 20 40 52 67 59 85 95 96 94 84 77 84 58 46 43 20 17 16 12 10 11 13 13 12
3 3 3 2 3 5 8 13 17 20 24 24 22 18 15 15 14 13 11 9 8 8 9 14 23 44 73 93 95 95 79 93 78 73 54 43 40 27 11 8 10 11 12
5 5 5 5 4 4 3 3 3 4 5 9 16 22 24 23 18 19 17 12 10 8 7 7 9 18 37 39 76 83 93 93 93 96 96 72 64 58 43 26 23 27 21
10 9 8 8 7 6 6 5 4 3 2 3 3 4 7 11 19 24 20 17 15 12 9 8 7 6 10 19 33 72 98 99 99 86 97 86 75 81 67 50 47 65 74
7 7 7 7 7 8 7 6 6 5 5 4 3 2 2 3 5 9 16 22 21 17 15 11 9 7 6 6 10 52 66 84 94 93 95 97 80 80 68 61 67 76 82
16 12 15 16 14 10 8 7 7 6 5 4 4 5 5 4 3 3 3 4 11 21 20 16 13 10 8 7 7 58 86 92 97 96 98 98 99 96 82 78 88 96 100
21 18 17 17 17 16 14 11 9 7 6 4 4 3 4 4 6 6 5 4 3 5 14 21 17 13 12 10 9 34 85 86 96 96 97 99 99 89 96 92 92 96 96
30 25 20 16 13 11 8 7 6 4 5 5 4 4 4 3 4 5 9 8 6 4 3 7 19 20 15 13 11 8 37 62 73 74 88 95 96 96 97 96 96 96 95
11 9 8 7 7 6 6 5 5 5 5 4 4 3 4 4 3 4 7 13 11 9 6 3 4 16 20 17 16 13 13 26 57 59 70 78 85 94 80 72 85 76 80
14 14 14 12 9 8 11 11 11 10 11 11 9 8 6 5 4 3 8 13 14 12 9 6 3 3 14 20 19 22 22 24 49 56 69 80 76 74 67 61 75 70 74
22 17 15 13 15 16 16 15 12 11 10 10 10 12 14 12 9 8 14 16 15 13 11 10 7 4 4 14 20 23 36 45 54 74 77 80 89 75 63 57 60 73 84

GFSGL_500_rhum_087.txt.gz
RH
16 20 26 24 35 33 33 26 28 36 37 34 68 68 41 39 32 27 20 25 31 22 16 23 21 11 13 14 15 15 14 16 19 18 16 13 12 13 13 14 15 16 17
13 9 13 20 21 28 31 28 23 31 35 25 51 60 36 44 34 39 36 27 21 43 29 15 22 18 11 11 14 15 15 16 14 13 16 16 10 10 10 10 11 13 13
63 44 32 13 15 15 26 30 29 26 33 31 27 36 40 46 48 41 47 35 32 26 22 17 12 9 10 19 13 12 12 14 14 13 12 12 12 9 12 12 11 11 12
96 73 72 58 51 32 19 23 29 27 26 30 27 27 34 34 45 38 44 39 35 22 35 30 19 11 6 6 15 13 15 15 13 12 12 11 12 11 12 11 11 10 12
96 79 83 88 87 57 50 31 38 35 27 25 28 26 27 29 32 39 40 39 37 43 42 29 22 10 8 7 8 9 9 9 9 10 12 14 11 9 9 10 10 11 11
96 95 96 93 92 97 67 42 35 46 51 32 28 24 30 32 29 26 33 36 32 26 31 38 26 20 11 10 10 10 11 12 13 14 14 13 13 12 12 11 9 9 8
94 97 97 95 96 95 95 76 50 56 45 44 48 34 34 34 35 31 26 29 30 26 24 20 28 32 26 21 13 12 11 10 10 10 11 10 11 11 13 13 12 13 14
96 96 97 97 96 96 95 94 78 64 69 54 40 34 39 35 39 40 47 37 28 27 23 22 29 30 30 31 26 16 16 16 16 12 10 9 8 7 7 11 12 16 19
94 95 96 96 97 96 96 95 87 64 59 62 60 41 36 32 35 33 37 45 46 37 26 24 16 16 19 24 24 22 17 16 16 14 13 12 10 8 7 6 8 11 12
23 68 92 92 88 70 29 47 82 90 66 53 47 38 36 36 31 35 35 32 39 21 42 37 29 26 18 16 14 14 17 16 10 8 9 8 9 9 8 6 5 5 6
15 14 25 25 26 24 19 17 15 19 44 69 60 59 60 49 54 61 64 52 39 44 23 25 29 22 19 20 23 19 15 13 12 10 10 10 10 8 8 7 6 4 4
13 12 12 12 12 9 7 6 7 8 10 10 25 69 74 76 68 66 72 68 67 64 70 36 40 47 35 17 15 14 14 12 12 11 10 14 18 17 12 10 10 8 8
19 17 17 16 14 12 11 11 8 6 6 6 8 9 18 62 71 65 64 64 60 58 59 65 54 51 38 33 34 26 22 21 20 13 11 18 24 25 24 19 13 12 11
19 20 20 19 18 17 17 16 16 15 12 9 8 8 7 7 9 29 53 61 68 70 60 64 84 90 70 76 73 63 44 26 17 16 20 25 24 22 20 21 23 22 18
25 24 23 23 22 22 20 19 18 17 17 17 15 13 13 11 9 8 7 8 14 26 27 22 73 83 89 79 88 85 69 50 39 33 21 11 11 20 18 13 11 15 18
29 29 28 28 28 28 27 26 26 24 21 19 18 18 16 15 15 13 12 10 9 8 8 10 14 42 76 78 84 91 95 82 82 80 69 58 55 54 45 37 23 12 15
9 8 8 7 6 8 8 8 9 11 13 13 16 20 23 23 21 20 19 16 12 10 8 9 8 8 10 31 22 46 29 53 92 85 86 81 79 77 80 61 48 53 53
4 4 4 4 3 4 3 3 3 3 3 4 6 7 8 10 14 19 22 23 22 19 15 11 10 10 9 8 7 7 7 8 22 50 66 78 88 89 79 88 83 72 65
7 6 6 6 5 5 5 5 5 5 5 4 4 4 3 4 4 6 7 10 15 17 18 20 19 15 14 11 9 7 7 7 7 13 43 53 66 82 93 96 96 94 89
10 10 10 9 9 9 9 9 8 8 7 6 6 5 5 4 4 3 3 3 4 5 7 10 14 19 20 16 10 11 9 8 7 7 8 16 28 76 77 91 94 97 96
11 10 10 9 10 10 10 9 8 7 7 7 7 6 6 5 5 4 4 3 3 3 3 3 5 7 11 15 16 15 13 11 10 8 6 10 43 60 92 96 98 97 96
32 26 24 22 21 19 16 14 12 11 10 10 8 8 7 6 5 4 4 4 3 3 3 3 3 3 3 4 7 11 14 14 12 12 10 7 14 44 85 96 96 97 96
66 61 55 52 50 44 39 35 31 26 21 16 12 10 8 7 6 6 5 4 3 3 3 3 2 2 3 3 2 4 6 8 13 14 14 11 10 12 72 95 93 96 97
79 68 59 48 33 22 15 12 13 15 15 14 13 11 9 8 7 6 5 4 4 3 3 2 2 2 2 3 4 3 3 4 5 10 15 16 13 10 13 71 84 85 92
20 15 16 15 13 12 11 10 9 7 6 6 5 4 4 4 3 3 3 3 3 3 2 2 2 2 2 2 3 5 4 3 3 4 8 16 18 17 11 14 40 53 66
30 22 22 19 15 11 10 13 11 8 8 7 6 8 8 8 8 8 7 5 4 4 3 3 3 2 2 2 3 6 10 7 4 3 3 8 17 19 19 14 15 45 56

GFSGL_500_rhum_093.txt.gz
RH
19 21 16 24 31 35 31 37 35 46 58 51 75 73 52 39 29 33 36 30 28 29 24 18 14 14 14 16 16 15 16 17 17 18 16 15 9 9 11 11 11 11 10
32 15 21 12 24 31 36 28 30 33 44 43 72 75 48 51 47 35 27 34 22 28 26 27 24 17 13 14 16 17 17 17 15 14 13 11 11 9 13 12 10 10 12
90 48 24 16 14 27 36 33 39 30 42 50 57 76 70 56 49 38 38 42 34 28 40 24 19 21 20 12 11 13 14 17 16 16 16 14 14 11 12 14 12 11 12
98 87 39 29 29 22 31 47 42 34 33 38 40 44 78 76 44 43 38 54 49 29 37 28 25 17 17 18 10 16 15 12 12 13 12 12 12 11 12 14 12 10 8
97 96 88 69 56 47 40 46 50 52 43 43 46 41 41 59 55 50 55 45 59 46 34 31 35 38 32 22 19 15 13 16 14 14 12 11 13 15 14 12 12 12 10
96 96 97 96 96 86 66 67 71 68 67 57 44 44 44 38 44 47 48 53 50 51 50 46 41 44 36 22 13 8 9 17 16 9 10 12 11 11 12 12 12 12 12
94 96 97 98 96 96 95 95 98 95 93 92 65 47 56 58 44 42 42 40 47 49 46 44 45 46 39 30 22 22 12 11 14 11 12 12 12 12 14 13 12 11 10
52 63 59 76 95 97 96 96 98 97 97 96 95 95 93 84 67 53 43 43 47 46 47 44 39 32 29 27 32 33 32 29 27 25 18 16 17 18 17 15 14 14 15
8 31 36 50 67 94 96 97 97 97 97 96 96 96 95 96 86 77 72 50 48 46 53 54 32 31 31 32 28 22 29 31 28 27 28 24 21 19 16 13 10 8 9
21 12 11 12 20 51 73 87 86 96 95 97 98 97 96 92 95 90 82 56 54 50 51 59 59 57 43 34 31 29 26 22 18 16 15 16 16 16 16 15 14 12 9
30 23 18 12 8 9 10 19 96 96 96 96 94 96 97 97 97 96 61 52 48 47 48 59 60 55 60 69 59 54 52 46 41 37 38 33 26 23 22 22 22 20 15
24 23 22 17 12 9 9 9 9 24 76 93 93 90 85 77 95 90 66 60 52 46 40 42 52 44 49 67 56 62 67 56 46 46 48 57 61 53 37 29 19 16 15
22 17 14 13 12 12 10 9 9 9 10 16 30 62 77 42 51 56 54 77 71 67 65 54 72 75 71 74 74 67 60 60 63 60 61 64 62 69 44 34 28 28 24
21 16 13 12 11 11 11 11 10 9 10 10 12 14 18 29 35 26 34 24 31 66 79 74 70 66 68 68 69 71 68 66 64 63 62 70 66 58 47 50 57 64 63
20 17 15 14 14 14 14 14 13 13 12 12 13 12 12 13 14 14 12 11 12 11 11 11 16 36 61 77 78 69 54 50 53 62 67 64 72 92 89 74 66 66 71
23 23 22 21 21 21 20 19 19 18 18 18 17 17 16 13 14 15 15 15 15 15 15 14 13 11 10 9 9 8 9 8 9 9 15 31 26 24 79 85 79 74 72
27 27 28 28 28 28 27 28 28 27 26 25 24 22 21 21 19 16 15 14 14 14 14 14 14 14 14 13 13 13 14 15 13 10 8 8 7 7 11 43 65 64 47
44 42 42 43 43 41 39 36 35 34 33 32 31 32 32 31 30 29 27 24 21 18 16 14 14 13 13 12 12 11 10 10 10 11 12 12 11 9 8 8 8 10 15
14 16 18 19 15 13 12 12 10 10 10 11 11 11 10 12 14 17 17 14 18 22 24 24 23 23 21 19 19 19 16 13 12 10 9 9 8 7 8 8 9 11 10
10 10 8 8 8 7 7 7 7 6 6 6 6 5 5 5 4 4 4 4 4 4 4 6 10 12 15 20 22 23 23 22 21 20 18 16 16 14 9 7 7 7 8
18 17 15 14 13 12 13 13 12 12 11 11 10 10 9 9 8 7 6 6 5 5 4 4 5 5 6 7 8 9 11 16 15 14 14 14 16 16 16 15 12 10 8
18 19 20 20 20 19 18 18 16 15 14 13 12 12 11 11 11 11 11 10 10 10 9 7 6 6 5 5 6 7 8 8 10 10 11 11 12 10 11 12 12 13 13
35 22 16 14 14 14 14 14 13 14 16 16 18 20 20 18 16 16 15 14 14 13 12 11 10 9 8 8 7 6 5 5 5 5 6 6 7 8 8 8 7 7 8
51 49 48 52 50 46 44 43 39 34 29 25 22 21 22 26 26 24 21 18 17 16 15 13 10 9 8 7 6 5 5 5 5 5 5 4 4 4 4 5 5 6 5
60 57 57 55 51 46 43 41 42 46 47 43 36 27 23 20 16 14 13 12 12 10 10 10 10 8 7 7 6 6 6 6 5 4 4 4 4 4 4 3 3 3 4
68 65 63 59 56 50 44 39 31 23 22 25 26 24 22 21 18 13 11 10 8 7 5 4 4 4 5 5 5 4 4 3 3 5 6 6 5 4 4 4 4 4 4

GFSGL_500_rhum_096.txt.gz
RH
13 24 22 23 27 27 32 29 36 48 52 65 69 83 60 36 26 30 32 29 23 19 13 14 14 13 14 15 15 15 14 14 15 16 13 9 8 8 8 9 10 9 11
15 17 24 23 20 28 28 32 21 45 50 64 68 57 70 51 34 27 35 38 41 32 28 25 31 25 14 14 15 16 16 15 13 12 12 10 8 8 10 10 10 10 11
85 56 20 19 21 21 27 29 32 24 28 43 56 59 80 61 47 37 35 31 40 43 46 32 36 30 25 14 13 13 14 15 14 12 11 11 12 11 10 12 13 12 10
97 97 78 33 18 19 18 30 31 29 31 34 45 50 75 99 66 50 45 35 46 48 42 47 38 32 26 30 26 16 16 14 12 12 13 12 11 11 13 13 12 13 13
97 97 94 94 77 23 18 16 26 32 38 34 31 34 42 45 66 76 45 38 40 58 46 37 39 33 23 32 32 24 14 13 17 16 13 10 10 15 14 13 12 11 8
73 92 84 97 96 44 33 26 24 27 37 49 40 42 39 42 43 68 59 40 46 44 59 55 41 35 40 43 47 30 21 16 12 22 10 10 11 11 11 11 11 10 10
62 41 74 85 96 95 94 87 49 44 50 54 64 61 59 50 52 43 50 60 49 49 48 50 48 49 47 48 37 25 26 21 16 14 14 12 13 14 15 20 19 15 11
25 70 94 96 92 98 98 98 96 82 72 74 88 97 98 94 82 63 60 52 53 54 55 48 48 46 45 40 36 35 36 32 23 24 25 24 22 21 18 18 17 13 12
18 14 26 44 69 71 60 82 90 96 91 97 96 96 96 96 98 96 83 76 54 57 53 59 66 60 58 53 48 40 32 25 26 32 33 31 30 29 24 19 16 14 16
16 15 12 10 9 11 26 38 80 96 97 97 95 96 98 96 97 97 95 95 95 94 70 58 59 63 76 77 64 50 39 36 34 30 24 22 20 20 19 21 24 23 22
48 42 40 32 24 16 10 8 14 22 45 82 93 92 96 97 96 96 96 96 96 97 91 69 69 61 60 72 76 74 70 67 60 54 49 50 42 40 44 45 48 49 45
50 38 25 22 22 21 17 13 8 7 9 51 59 70 93 96 96 85 96 97 96 96 73 53 51 50 48 49 50 58 69 63 66 58 64 66 59 51 47 47 51 54 58
51 38 35 31 30 27 19 12 11 11 8 6 10 79 97 96 90 92 80 82 95 95 76 64 60 54 47 42 41 47 56 68 75 63 53 58 60 60 60 60 59 59 55
50 46 44 38 32 23 19 17 13 10 10 9 8 7 8 10 16 37 49 56 80 75 62 65 72 66 69 63 54 63 68 78 82 75 69 68 68 67 65 63 65 64 60
66 64 52 42 29 16 13 15 13 12 10 10 10 10 9 10 13 13 18 34 37 46 46 46 41 35 43 72 78 74 70 65 66 69 71 75 77 66 52 53 61 64 56
52 43 37 26 26 19 16 16 14 13 12 11 12 12 12 11 11 12 13 15 15 15 16 21 18 16 14 14 10 11 15 20 26 30 30 32 27 13 7 8 9 16 34
42 54 58 33 30 24 21 20 19 18 16 15 15 15 15 16 16 15 14 13 13 15 16 17 16 16 16 16 16 17 16 15 14 13 11 12 12 12 10 8 7 7 7
45 41 38 36 32 30 28 26 24 23 22 21 21 20 20 21 22 23 23 22 20 18 17 16 15 16 16 16 16 15 16 15 14 14 14 13 12 11 11 11 10 9 8
48 53 52 48 44 40 38 39 37 37 37 38 39 37 35 34 33 32 32 32 31 31 31 29 28 26 23 21 20 19 18 18 15 14 14 13 12 11 10 9 8 8 8
19 20 18 15 15 15 19 25 27 28 28 26 27 28 26 23 21 21 21 19 19 20 19 18 19 20 21 24 27 26 26 25 24 24 23 22 21 21 20 16 15 13 11
12 12 13 13 13 13 12 11 10 9 9 8 8 8 7 7 6 6 6 6 5 5 5 5 6 6 6 6 7 7 10 16 20 20 20 20 22 22 22 21 20 19 17
16 17 18 19 20 20 20 19 18 17 16 15 14 13 13 13 13 12 11 11 10 9 9 8 8 7 7 6 5 5 5 5 5 6 8 12 14 14 14 14 13 13 13
39 41 38 31 24 19 18 18 18 19 19 18 18 17 16 15 14 13 13 13 13 12 12 12 12 12 11 10 9 9 8 7 6 5 5 5 5 6 7 9 10 10 9
54 53 53 51 50 48 46 44 42 38 33 28 25 22 26 29 31 30 28 26 25 25 26 26 24 22 21 20 18 17 15 12 10 8 6 5 4 4 4 4 4 4 5
88 86 78 70 63 58 53 52 52 57 64 61 56 48 43 40 38 37 35 32 28 24 20 16 13 12 13 11 10 8 6 6 5 5 5 4 5 5 5 5 4 4 3
63 68 75 75 75 73 72 70 69 66 62 58 55 51 45 37 27 22 20 19 20 18 15 13 10 11 11 8 6 5 5 7 9 9 9 6 6 5 4 4 3 3 3

GFSGL_500_rhum_102.txt.gz
RH
12 17 18 19 32 38 39 45 43 67 73 56 64 31 42 41 55 48 38 20 13 19 14 10 11 11 12 13 13 13 12 12 12 12 11 10 9 10 11 12 12 14 14
18 14 25 35 30 31 32 37 36 44 50 61 74 75 68 62 84 68 47 28 30 35 33 33 24 19 13 16 12 12 13 12 12 12 11 11 10 11 12 13 14 14 12
72 21 19 34 41 41 33 29 33 37 40 46 56 55 58 82 78 72 67 43 32 45 48 45 38 34 42 40 22 14 16 18 13 13 11 9 10 12 12 12 12 11 11
96 68 45 28 36 38 44 33 21 23 31 36 37 35 32 48 74 80 77 68 53 39 41 46 56 50 45 49 38 36 34 29 23 21 20 11 11 11 12 12 9 9 9
96 72 62 75 80 71 53 55 28 18 18 26 26 28 33 28 38 54 61 72 68 55 33 43 48 54 59 55 51 50 50 42 32 28 27 20 11 8 10 9 10 12 12
94 95 97 93 85 96 92 89 63 24 19 16 18 25 33 39 38 35 39 46 54 72 64 51 41 60 65 59 49 35 35 53 57 56 45 30 17 23 26 12 11 13 14
81 98 95 97 97 96 96 96 92 87 53 26 20 21 23 33 39 43 36 36 49 45 48 73 62 46 50 62 55 46 44 41 42 40 40 32 28 23 24 20 28 22 16
79 86 87 88 94 96 96 95 91 98 100 96 91 60 47 20 22 31 44 49 54 71 65 59 59 67 62 63 63 54 47 40 56 48 31 31 29 22 22 26 30 29 31
66 73 76 53 65 73 94 100 89 97 96 100 93 84 67 70 81 40 33 42 55 67 87 96 80 48 57 66 65 52 59 57 48 46 36 32 31 31 30 32 32 35 37
68 65 60 64 63 25 20 58 91 98 85 89 72 45 83 77 80 96 69 48 66 89 95 93 94 97 94 60 68 69 62 63 58 57 51 48 42 37 38 36 28 26 30
69 75 68 51 16 13 12 20 24 25 33 77 31 12 16 46 80 88 88 90 91 84 94 97 94 90 97 97 96 85 82 77 74 77 70 59 59 58 47 40 39 40 38
73 80 71 45 22 36 33 32 29 23 18 15 12 10 9 10 20 52 79 69 60 77 56 80 89 93 88 93 94 97 96 94 88 76 63 59 61 63 58 57 58 56 57
79 75 65 47 39 52 45 38 32 26 24 18 14 14 14 13 11 9 8 8 24 39 38 49 83 77 80 83 82 87 93 94 93 84 68 59 49 47 51 45 42 54 58
86 86 76 54 56 59 56 53 43 24 25 28 21 23 23 20 18 17 14 12 9 9 36 54 86 92 96 97 85 75 73 80 96 93 61 53 53 52 49 41 40 42 46
63 69 82 72 69 53 60 64 57 47 43 38 36 31 28 31 30 22 12 11 11 10 8 12 20 25 53 48 57 73 76 87 92 70 59 57 55 56 58 63 61 63 62
77 69 70 76 80 60 64 62 66 64 55 46 39 35 39 39 28 18 14 12 10 10 10 10 9 8 8 8 11 19 44 83 81 79 71 59 54 51 43 36 32 29 26
79 83 86 97 90 83 68 61 65 75 62 57 55 54 54 45 35 34 22 13 13 12 11 11 10 10 10 10 11 11 13 15 27 41 44 57 50 42 48 41 30 29 23
66 86 97 94 96 92 72 73 84 71 70 70 78 67 64 62 54 47 28 20 15 14 14 13 13 14 14 14 13 13 13 14 14 14 13 13 13 13 14 14 14 13 14
99 99 100 93 95 92 97 90 80 62 43 40 40 37 38 41 41 36 28 25 23 21 19 17 16 16 16 16 17 17 18 17 16 16 15 15 14 14 13 13 12 12 12
97 97 97 97 96 96 84 64 51 43 37 34 31 35 34 31 31 30 31 32 32 29 26 24 23 22 23 24 24 24 26 25 26 25 26 26 25 23 22 21 19 18 17
95 95 95 95 95 91 80 64 52 46 42 37 36 39 46 45 41 37 36 40 42 42 39 38 37 36 35 34 35 35 34 33 32 31 30 30 27 25 24 23 22 24 25
26 27 38 40 31 40 62 53 35 33 35 40 44 47 38 27 22 23 26 25 21 19 17 15 14 13 12 11 11 10 9 9 8 8 7 7 7 6 6 6 5 5 7
27 20 16 17 16 17 16 14 14 14 14 14 14 15 14 14 13 13 13 14 15 15 16 15 14 14 14 12 11 11 11 11 11 11 12 11 11 10 9 8 8 7 5
14 28 38 35 21 18 17 16 19 22 22 23 23 20 18 18 20 21 21 20 19 19 19 18 18 19 23 24 24 23 22 20 19 18 17 15 14 14 11 9 10 8 6
10 12 21 32 38 43 42 36 22 24 27 35 44 47 42 43 44 44 44 46 47 45 45 40 36 37 39 35 37 37 34 33 32 30 27 24 20 17 15 13 11 10 9
10 11 15 23 49 64 73 82 81 79 64 61 86 85 84 84 82 80 75 71 68 65 63 59 55 51 48 45 40 29 22 18 17 15 14 14 13 13 13 12 11 10 9

GFSGL_500_rhum_105.txt.gz
RH
11 18 19 15 24 31 39 45 50 56 75 76 68 67 63 37 47 69 51 50 19 13 18 14 10 10 11 11 11 10 9 9 10 10 7 7 8 10 12 11 11 12 13
12 10 12 19 17 23 31 37 38 44 54 70 56 66 72 71 62 73 83 54 33 30 32 34 30 21 14 11 12 11 11 11 10 11 9 10 10 10 12 11 12 12 12
58 61 40 12 16 29 29 31 34 32 38 56 58 64 77 62 64 75 88 74 53 33 37 47 46 40 36 37 43 31 15 12 17 14 12 10 9 11 11 12 12 11 10
97 97 87 69 21 21 37 37 36 33 30 38 44 50 47 44 49 69 78 77 76 64 50 43 46 49 57 51 49 47 37 37 30 23 22 18 13 11 11 11 11 10 10
97 98 97 95 94 35 36 44 44 44 35 27 29 37 37 31 27 31 49 72 72 75 68 67 41 46 60 54 50 45 51 52 47 41 30 27 23 14 10 9 10 10 12
85 83 90 97 98 72 58 47 62 69 55 45 20 20 34 40 43 40 47 55 56 70 79 82 64 51 42 43 58 62 53 39 38 51 59 58 45 34 15 23 22 12 14
63 61 67 76 89 90 95 98 94 97 94 87 55 45 53 54 55 41 42 39 38 43 54 57 59 70 70 63 46 52 60 55 47 48 42 50 51 41 42 37 33 33 29
68 65 68 95 90 94 86 93 96 96 97 95 92 94 94 67 49 25 22 24 40 47 58 74 73 69 61 67 67 54 60 63 64 48 47 51 57 33 35 39 27 24 29
72 78 72 66 68 68 80 89 98 96 95 95 96 98 100 96 60 53 52 40 35 23 32 56 93 76 92 95 70 58 61 63 62 60 58 46 44 43 36 30 26 29 38
68 72 70 68 64 63 52 62 79 94 90 92 96 92 91 88 70 75 75 68 80 98 58 36 50 68 88 92 97 99 75 56 62 61 64 65 58 52 45 42 43 37 38
64 61 66 64 62 57 57 59 57 45 59 85 90 77 68 28 18 17 45 83 90 95 93 68 80 80 82 91 93 95 90 93 93 72 67 59 60 64 64 63 65 62 57
57 56 56 60 72 65 49 31 31 16 49 23 20 35 57 57 24 14 30 37 45 51 47 48 67 70 59 72 85 92 88 86 91 86 85 92 92 75 76 66 61 58 58
56 39 52 67 74 69 46 26 28 30 28 22 22 19 16 13 12 12 11 12 11 9 8 10 13 34 38 47 51 53 88 90 86 88 90 88 90 89 88 80 62 53 50
36 28 52 72 75 77 52 36 42 38 35 33 35 34 32 22 17 21 21 20 19 20 19 14 12 10 8 14 48 78 72 81 79 85 87 83 85 80 89 92 75 57 53
56 62 53 58 74 81 71 49 58 53 49 45 40 25 25 29 31 32 28 25 27 28 28 24 18 12 12 12 10 8 12 24 29 30 62 72 75 85 93 88 72 64 60
41 66 69 69 72 82 80 84 58 64 60 54 52 55 46 45 44 40 42 36 29 31 32 25 17 12 12 12 10 10 9 9 9 9 9 20 45 72 83 87 78 68 61
73 54 46 60 68 75 65 66 83 76 73 65 61 61 60 54 56 52 43 41 43 44 41 39 38 32 18 10 10 10 10 10 10 9 9 10 10 10 12 16 40 52 52
48 54 63 59 73 72 81 81 68 68 83 83 74 63 60 59 71 74 59 60 67 59 56 55 52 48 30 19 13 12 11 10 10 10 9 10 11 11 12 11 11 10 9
81 82 71 94 95 95 96 76 81 93 89 98 94 78 75 84 89 71 53 46 44 39 36 38 37 34 29 24 22 20 18 17 16 14 13 13 13 13 13 13 13 13 13
98 96 94 98 77 94 94 96 95 94 87 92 90 94 95 93 68 43 39 31 29 30 30 27 23 22 22 24 26 28 26 24 21 20 20 20 20 21 20 20 20 19 18
95 97 97 97 97 97 98 98 97 98 98 97 97 97 97 90 52 43 41 38 31 27 24 20 21 20 20 22 22 25 29 31 32 32 33 33 33 34 32 31 30 28 27
86 91 92 93 95 95 95 96 96 96 97 96 96 96 96 73 56 52 48 44 41 40 40 35 29 26 26 28 29 28 29 29 26 25 23 20 17 15 14 12 10 11 10
8 11 13 26 46 41 34 41 44 60 67 66 63 71 84 71 48 28 23 26 28 26 23 21 18 17 17 16 15 16 15 14 14 14 13 13 13 14 14 16 16 15 15
4 4 6 8 10 10 12 20 28 27 17 15 16 17 19 19 19 18 17 15 15 17 18 17 18 17 17 18 17 18 22 24 26 27 27 28 32 30 28 25 23 21 18
13 11 12 10 8 6 9 12 14 21 35 43 40 29 21 23 28 29 34 34 32 32 32 33 36 35 37 40 44 44 46 46 45 44 41 41 39 36 32 29 25 23 19
8 8 7 8 12 18 15 10 12 16 27 54 67 70 73 68 59 57 68 75 75 78 84 76 74 73 67 65 63 60 57 51 47 43 34 27 21 18 14 11 10 9 8

GFSGL_500_rhum_108.txt.gz
RH
11 14 17 15 14 27 36 45 44 66 77 72 74 62 58 41 44 50 52 53 36 16 19 18 13 10 10 10 10 9 7 7 7 7 6 5 5 5 5 6 7 10 12
10 11 13 17 16 14 18 27 36 35 42 61 80 67 65 63 53 57 68 55 36 25 24 30 30 29 25 18 14 16 12 9 10 6 10 8 6 6 6 7 8 9 10
19 18 40 17 11 14 15 15 22 26 30 32 48 64 72 73 82 64 63 81 62 39 27 33 45 42 42 43 44 38 30 15 11 14 12 9 7 6 9 9 8 8 9
89 95 84 95 74 56 13 14 23 26 31 30 48 59 64 73 80 54 61 67 70 71 72 49 38 40 41 55 55 55 54 47 40 37 30 17 16 15 46 20 7 8 9
88 87 98 98 78 92 75 35 18 32 40 41 35 36 52 51 42 34 38 51 61 75 76 73 58 56 46 52 61 54 55 55 51 51 47 40 30 25 21 14 9 12 11
93 84 78 82 90 80 96 96 73 32 48 45 44 39 36 45 44 48 39 34 52 67 65 69 82 83 60 48 51 44 47 56 58 52 41 39 43 55 52 40 22 26 23
70 62 73 74 77 83 85 94 94 56 68 79 86 76 62 43 42 49 53 40 45 49 49 53 69 78 70 79 79 70 62 47 54 63 60 56 58 51 57 53 48 50 44
68 67 64 58 58 67 68 80 91 96 97 97 98 97 94 85 67 70 67 66 46 40 50 56 59 61 84 77 71 68 70 76 63 60 62 62 57 47 42 54 50 33 35
82 80 73 65 64 58 70 74 77 82 83 95 98 97 96 95 97 96 94 79 70 38 40 52 54 62 81 78 85 82 91 78 64 65 65 64 57 44 44 50 44 42 38
88 88 82 74 63 59 60 58 59 64 84 94 99 97 98 96 92 86 85 82 75 77 74 87 86 72 65 41 45 66 84 92 95 86 80 58 50 53 59 55 57 54 52
78 64 57 73 65 61 60 59 55 53 54 89 76 69 76 88 89 78 30 18 60 77 63 72 91 88 89 49 54 75 80 82 85 89 82 73 85 72 56 65 65 62 61
60 52 63 66 55 49 58 59 56 53 52 52 72 61 61 76 73 73 63 27 19 32 54 56 60 53 53 64 77 75 58 57 67 61 76 88 87 82 80 83 84 87 82
75 68 69 74 64 50 47 55 61 55 41 35 26 44 56 40 38 56 47 32 40 13 24 20 17 12 14 16 17 14 22 28 35 48 54 73 83 75 78 85 86 88 88
78 77 77 77 71 59 41 53 75 69 36 31 32 30 22 20 19 18 15 12 15 18 19 18 21 27 28 28 22 19 18 14 10 10 26 49 56 36 30 30 51 71 76
73 82 81 77 62 48 41 50 72 78 64 38 40 37 32 29 30 30 28 27 26 28 29 26 27 30 30 26 25 21 18 15 13 13 11 9 8 9 8 9 10 13 33
43 40 42 39 50 70 70 62 64 79 84 67 48 54 43 38 36 33 25 26 32 37 37 36 34 34 32 25 26 28 29 26 18 12 10 10 10 9 9 9 8 9 9
43 49 40 53 52 59 62 77 71 68 84 91 93 70 61 55 46 44 48 47 47 46 45 49 43 42 32 29 34 32 34 39 38 36 30 17 10 9 9 9 9 9 8
62 63 56 47 39 31 56 95 87 95 73 72 80 77 86 86 74 73 70 65 56 48 40 38 48 54 54 52 53 49 47 44 42 37 30 21 18 15 14 13 12 12 11
72 72 65 64 68 71 61 51 45 41 34 66 71 74 62 64 76 89 95 92 83 74 65 62 65 77 60 46 39 34 30 27 23 21 20 20 20 19 17 16 16 15 13
76 76 80 79 97 98 92 99 95 92 88 58 89 78 90 97 81 80 86 85 71 91 95 90 82 62 35 30 28 24 20 19 18 17 14 14 13 12 12 12 11 11 12
96 96 97 97 97 97 97 97 97 99 97 97 97 99 99 95 96 96 95 93 86 90 96 96 98 61 39 40 41 40 39 37 36 32 28 24 22 22 22 20 19 18 17
88 92 88 76 73 87 91 92 96 95 95 96 96 98 96 98 98 100 99 98 96 95 100 95 94 78 52 50 47 43 41 38 33 29 25 23 21 21 20 17 18 17 16
4 14 44 50 16 10 10 14 20 28 72 89 90 96 92 93 94 96 96 95 88 81 85 89 92 88 80 49 21 19 18 17 17 16 15 14 14 14 14 17 19 18 20
15 11 9 9 9 6 4 4 4 6 9 10 14 23 36 47 63 62 47 57 64 62 39 32 38 60 69 55 30 17 16 17 17 19 21 24 24 27 31 31 29 29 33
36 29 26 26 21 14 12 11 12 10 7 6 7 10 12 19 39 41 38 27 24 26 30 34 37 36 35 37 38 41 46 45 48 49 45 44 41 37 39 44 45 34 23
30 23 16 14 13 10 9 9 9 8 8 9 11 12 8 8 12 25 42 65 76 80 81 74 69 68 59 62 63 62 65 59 57 54 52 52 50 41 30 24 22 21 17

GFSGL_500_rhum_111.txt.gz
RH
19 19 18 18 19 18 33 44 62 56 88 75 79 71 39 30 38 50 52 52 41 18 14 18 18 10 9 10 10 9 10 9 13 8 7 8 9 6 7 8 9 10 9
35 16 15 22 18 18 15 26 32 37 46 63 64 80 74 67 66 58 61 63 50 43 33 26 32 32 31 30 24 26 31 31 14 24 19 18 12 9 17 30 11 11 10
57 13 13 12 15 15 17 19 17 30 34 37 46 60 69 69 69 63 67 68 74 56 31 27 35 46 44 40 47 53 47 46 35 30 28 18 17 16 22 39 29 9 10
54 33 15 22 46 29 12 14 16 17 19 30 37 29 54 68 66 74 74 58 68 76 71 56 38 31 44 46 57 64 58 56 53 47 45 43 29 28 29 27 19 14 9
84 86 77 72 91 80 95 89 61 26 19 26 32 36 42 60 66 69 59 51 57 67 68 72 68 59 51 44 42 60 60 52 54 58 53 48 46 43 38 31 24 15 12
93 77 90 100 98 94 97 95 88 94 86 22 26 40 48 44 51 64 49 44 36 30 39 60 79 68 65 70 63 43 42 42 47 55 58 52 40 37 47 53 50 38 22
97 96 95 91 86 79 80 95 90 91 97 97 74 49 55 54 55 52 43 38 50 47 40 43 70 62 70 81 84 76 70 68 65 59 45 50 55 54 50 48 51 53 47
90 95 84 85 81 69 79 97 98 87 98 97 92 93 94 94 95 86 77 50 42 54 53 48 49 64 66 70 70 75 72 65 65 61 48 43 42 47 56 59 48 40 41
95 67 51 68 68 61 63 73 85 82 76 90 82 78 88 96 95 96 89 95 87 84 78 74 66 65 59 61 56 65 76 76 76 75 78 70 52 52 52 50 44 46 44
95 97 96 83 79 70 77 64 58 57 65 68 64 61 68 66 90 81 86 87 89 89 92 95 85 71 55 66 79 62 61 55 41 62 75 76 82 82 75 62 49 51 48
91 91 89 77 85 80 71 62 61 56 55 52 49 54 77 90 83 75 86 89 94 87 83 84 77 73 60 71 76 78 86 63 45 68 73 73 56 54 73 80 84 77 72
92 83 88 76 71 71 71 64 60 60 57 52 53 51 56 77 63 66 75 88 67 27 14 26 56 63 46 56 62 54 49 51 45 34 68 59 50 50 49 73 83 76 77
74 74 76 72 77 66 70 59 52 49 54 60 60 49 44 32 48 54 60 67 69 68 48 30 27 28 31 34 25 26 18 15 25 46 47 44 31 16 15 33 52 46 40
81 84 71 66 69 67 68 73 72 63 51 37 42 57 43 40 31 32 41 40 34 35 38 33 35 39 21 17 21 26 26 25 22 22 23 22 18 18 16 14 10 9 9
49 68 88 82 81 80 84 84 85 76 68 45 47 80 64 35 33 28 22 20 19 18 16 13 17 21 24 26 26 28 29 29 29 25 20 21 17 13 12 12 11 10 10
32 32 38 59 80 89 87 83 72 57 51 46 50 74 86 79 46 46 39 32 26 24 23 23 27 30 32 36 40 40 36 34 30 26 27 33 29 24 25 26 22 18 12
35 33 33 46 53 56 48 46 50 50 52 55 66 67 71 90 93 63 52 55 44 35 34 31 34 38 44 49 49 44 37 28 29 38 41 42 40 39 37 34 34 31 23
70 66 70 62 56 51 97 70 66 69 80 75 69 66 84 71 83 100 99 80 63 58 56 52 53 57 63 65 61 56 53 50 45 41 50 55 45 37 30 25 21 20 18
80 67 68 73 92 92 80 75 78 64 57 55 48 45 79 86 90 87 89 87 83 80 79 81 80 83 88 87 87 85 77 70 73 69 59 53 40 32 26 21 19 18 17
98 86 79 87 96 90 88 88 77 80 72 82 95 83 87 86 65 52 50 49 39 51 80 78 68 70 80 79 72 50 61 81 95 93 57 34 28 26 29 33 33 32 30
83 75 80 71 87 88 85 96 90 78 68 72 96 96 95 90 89 99 99 94 91 69 73 90 90 95 91 97 95 90 88 100 97 97 86 51 47 46 46 44 41 34 30
4 16 36 49 78 93 90 96 100 95 94 81 84 100 99 93 93 96 98 97 93 96 97 95 97 97 100 98 96 92 92 98 96 97 91 84 76 68 33 20 18 18 17
6 5 5 4 4 4 5 19 52 68 82 92 88 82 70 87 94 93 96 97 96 94 99 95 95 97 97 95 94 94 94 88 84 86 85 82 79 78 83 85 64 39 27
46 36 22 20 21 20 18 15 12 9 7 7 10 8 6 6 8 13 14 23 33 44 67 90 93 92 89 81 76 69 67 70 72 70 68 62 46 37 32 27 20 20 28
47 49 49 49 43 39 36 32 29 27 24 22 18 13 12 12 10 7 6 8 16 42 63 62 50 44 42 44 45 50 49 47 46 49 52 54 52 49 54 58 59 57 55
56 46 37 28 23 24 26 22 16 12 11 10 9 8 8 8 8 8 12 12 11 12 17 32 46 62 83 84 86 88 89 88 88 87 94 96 92 82 74 59 42 32 28

GFSGL_500_rhum_114.txt.gz
RH
12 12 13 16 22 33 27 39 43 67 79 84 74 39 41 29 44 53 54 48 41 29 16 15 21 20 11 9 14 14 12 24 17 19 23 16 12 17 23 26 10 11 10
29 24 14 15 19 20 18 24 42 50 51 74 80 88 79 74 72 64 67 71 69 60 52 36 26 31 34 32 32 29 33 38 30 11 29 17 26 15 34 26 20 11 9
58 65 61 15 13 17 15 17 16 24 38 45 63 66 79 86 84 75 68 73 69 81 87 57 34 34 52 60 53 53 55 55 50 40 32 37 33 23 33 31 38 21 10
53 80 74 31 10 13 14 13 16 17 18 26 38 50 66 68 77 89 92 90 79 70 88 90 87 74 57 39 59 53 66 66 61 55 52 54 48 38 35 33 32 28 26
93 97 84 58 18 16 52 48 47 46 39 17 18 29 61 54 67 78 80 91 86 85 70 83 81 81 84 82 81 66 58 61 65 57 56 58 53 47 52 52 42 35 46
71 97 82 95 73 42 72 93 98 98 91 63 46 41 39 40 46 69 80 81 78 51 51 55 54 64 83 84 92 91 82 65 45 49 49 49 56 59 54 47 52 56 55
74 87 96 95 96 93 89 96 78 95 97 97 96 96 75 50 47 48 51 59 57 64 52 54 59 54 52 73 83 95 94 88 78 72 70 67 62 55 49 57 56 54 55
64 84 94 96 96 96 96 94 88 84 92 99 98 98 97 96 83 55 56 67 78 68 52 45 48 55 52 57 56 70 68 69 75 78 74 72 73 70 62 56 53 53 58
76 68 83 97 92 94 97 96 97 99 96 97 99 98 98 96 95 94 96 99 99 98 95 82 56 59 66 66 59 60 63 60 54 55 69 69 66 71 81 78 66 62 54
97 96 96 96 96 96 95 84 69 72 84 88 100 100 96 96 87 84 88 97 98 99 96 98 94 92 96 94 94 90 66 54 71 75 66 62 44 60 77 78 71 63 77
96 93 93 96 95 95 95 80 74 74 66 62 89 87 79 74 80 82 94 100 92 86 95 92 90 93 97 98 98 91 80 68 65 73 80 71 70 72 68 63 54 52 69
93 95 95 94 97 96 94 90 90 87 84 73 65 60 56 52 50 56 76 82 78 74 79 84 89 86 72 81 78 74 66 61 62 58 62 40 21 24 34 34 21 20 43
93 95 90 96 95 94 92 92 82 83 83 83 61 58 56 56 54 51 38 58 64 72 82 67 40 24 24 48 70 58 46 54 39 31 21 20 25 33 33 30 27 18 14
57 74 71 72 70 87 92 88 84 80 70 61 56 52 46 40 38 49 46 38 36 46 48 56 63 69 38 43 49 41 22 15 19 29 29 27 25 25 26 20 14 14 15
41 45 48 63 66 68 82 79 79 74 73 74 77 77 69 59 51 41 49 50 33 30 29 31 30 27 31 16 16 17 18 21 25 29 29 34 33 34 26 21 23 26 23
21 20 23 32 49 52 67 79 89 85 78 84 87 84 86 72 58 46 44 54 63 43 36 26 20 18 18 17 20 23 26 31 33 38 43 43 42 44 38 31 36 35 43
30 30 32 31 24 23 30 36 43 58 71 79 72 62 60 54 49 51 55 58 77 83 75 54 50 36 27 23 22 25 27 28 34 45 50 54 59 60 59 50 46 52 45
42 44 44 38 36 38 36 30 29 36 40 42 44 61 62 68 64 66 78 99 69 65 87 100 95 73 66 59 48 41 38 41 50 56 65 82 88 82 66 48 49 67 69
59 57 64 71 72 70 67 62 72 76 86 78 53 78 80 64 76 84 76 68 50 95 96 82 88 98 94 90 85 81 81 83 82 74 79 84 83 73 70 54 37 62 69
74 76 80 88 79 81 85 77 79 85 83 94 98 95 81 79 76 66 60 64 80 71 77 96 98 97 97 90 90 99 100 99 86 82 84 79 69 68 74 75 83 79 73
42 42 48 50 55 59 68 81 84 81 82 81 83 93 95 92 94 89 81 78 78 77 92 91 92 92 78 78 83 91 95 91 90 95 100 97 96 92 90 91 91 83 82
32 13 8 15 35 42 40 58 68 68 79 92 97 96 97 92 84 87 93 92 87 77 74 80 85 90 100 97 96 97 98 96 97 97 98 97 97 98 94 91 98 95 94
26 36 38 34 22 14 9 7 6 6 6 8 8 19 36 59 89 91 92 92 90 92 95 99 100 100 100 96 95 100 97 98 99 98 98 97 98 98 97 94 91 87 75
42 39 36 35 35 34 34 32 29 24 20 18 17 23 23 19 12 8 9 10 16 31 39 46 56 69 73 80 86 93 95 95 93 92 95 92 89 89 88 86 85 74 56
41 50 60 57 53 52 50 51 48 46 39 32 22 14 14 24 25 24 22 18 14 12 10 8 7 8 19 42 51 61 61 55 49 47 46 48 49 49 54 60 62 64 66
56 58 60 63 66 61 51 42 38 38 34 29 25 23 21 18 15 12 10 10 9 9 9 11 12 12 12 14 19 44 74 92 100 100 100 100 100 100 100 100 100 100 98

GFSGL_500_rhum_117.txt.gz
RH
13 12 19 22 27 47 43 35 40 45 43 72 80 66 42 36 37 42 42 35 31 24 24 15 16 19 18 10 12 14 14 16 21 17 24 17 28 24 52 22 10 10 9
15 14 13 13 14 17 27 27 28 38 48 57 85 79 61 61 45 60 59 65 69 63 52 45 36 30 31 35 35 36 35 40 38 32 28 35 31 30 24 28 34 16 9
28 40 49 20 19 17 16 19 17 26 38 39 51 77 86 84 90 79 73 76 78 76 78 80 78 49 34 36 56 49 50 59 56 52 45 36 46 46 20 27 28 29 17
34 56 79 56 59 55 18 17 19 16 17 22 30 36 49 56 73 84 87 94 95 94 84 77 91 89 89 83 60 45 52 50 57 56 56 54 54 50 42 39 37 36 29
97 94 81 58 74 59 30 14 18 16 15 15 17 19 36 26 54 54 59 84 96 97 92 89 76 78 76 82 97 91 83 76 67 53 56 53 58 63 58 48 41 43 47
90 82 95 92 78 91 85 20 12 25 65 63 40 45 26 39 26 40 64 83 96 94 94 63 52 52 50 74 89 76 85 95 95 89 81 64 65 60 54 50 51 52 47
92 98 86 74 98 98 88 56 72 78 96 86 98 89 66 56 51 42 56 65 70 82 91 89 74 62 59 64 58 57 68 77 83 80 79 76 71 72 70 68 63 56 53
98 98 87 68 96 95 97 95 84 84 96 91 98 98 97 98 98 96 78 48 47 52 63 68 68 65 59 52 58 61 61 62 65 69 70 70 70 73 77 77 75 86 82
98 84 78 79 95 96 96 97 96 97 96 95 94 98 99 98 92 94 95 94 89 88 87 95 97 98 93 86 70 83 77 78 70 70 66 59 57 64 74 66 48 69 78
97 90 73 73 87 96 97 96 97 97 97 96 96 97 99 97 98 98 96 97 96 97 98 96 97 95 98 96 95 93 95 98 97 94 96 78 75 88 87 78 62 69 74
96 98 86 96 97 97 97 97 97 97 96 93 86 94 96 98 99 97 96 93 85 85 85 84 93 87 87 98 98 99 96 98 97 97 94 88 87 88 93 84 72 46 52
94 97 96 96 97 97 96 97 96 96 94 95 81 74 75 85 89 77 65 55 61 81 95 88 81 78 82 88 95 96 95 85 89 77 91 84 76 85 68 33 21 23 23
86 96 89 94 95 96 96 95 96 96 96 95 94 90 83 77 65 61 58 57 51 46 42 59 66 75 91 98 62 38 27 60 75 74 85 58 37 24 22 24 30 36 33
61 66 80 92 93 95 96 95 94 93 88 94 92 86 82 74 73 62 50 47 40 40 50 40 45 49 67 53 40 67 79 68 83 84 58 22 18 28 31 31 29 29 28
52 60 60 49 36 43 38 47 68 81 84 86 83 82 75 68 62 65 61 59 56 53 46 50 51 36 37 40 40 39 32 29 37 37 21 22 34 37 36 33 37 40 40
36 41 50 60 48 43 40 38 48 61 82 84 83 80 79 79 72 69 65 62 65 66 60 52 54 68 52 32 25 21 18 18 18 18 21 32 37 36 35 38 45 50 53
34 44 57 59 53 43 32 25 22 21 29 38 50 74 82 84 82 93 86 70 67 58 48 48 47 69 96 82 57 41 34 27 26 26 26 32 32 30 33 37 45 54 63
26 42 42 44 45 42 40 38 35 34 28 26 26 33 36 42 45 46 49 57 57 59 58 58 75 72 80 86 95 100 89 69 60 56 50 44 42 46 52 61 62 68 79
25 28 28 32 33 34 36 40 42 47 54 49 40 39 38 38 36 38 39 46 60 86 76 72 71 71 88 95 93 93 98 100 100 99 99 98 97 95 94 97 99 96 90
35 35 44 48 50 54 65 62 72 76 79 78 81 85 80 67 96 84 92 97 80 98 89 76 71 69 70 64 64 60 77 94 95 88 91 97 98 97 90 82 83 85 89
47 55 65 60 56 64 65 58 59 58 63 63 70 81 88 83 81 90 84 80 84 94 96 94 86 80 78 76 97 96 98 96 94 95 97 97 96 93 97 99 100 95 98
18 20 22 19 25 37 36 40 50 53 74 81 79 87 82 85 91 87 86 89 92 95 94 97 97 96 97 96 98 100 95 90 87 95 98 95 98 100 98 99 99 98 99
13 14 15 18 18 16 16 19 24 26 21 19 18 14 10 9 8 8 14 29 40 47 60 81 94 100 99 97 96 97 98 99 99 99 99 99 98 99 99 99 99 99 99
33 35 36 35 38 40 40 40 37 34 30 32 36 36 37 36 30 26 30 29 27 25 22 17 12 9 8 11 16 22 29 37 57 84 94 96 96 95 93 85 82 87 85
46 48 54 58 60 61 60 55 52 49 48 46 48 52 52 48 47 44 35 27 22 20 20 21 21 21 19 16 14 13 12 23 43 50 63 75 75 67 62 62 65 75 80
66 52 36 37 58 66 63 62 62 62 66 60 51 42 33 28 28 27 27 25 22 19 16 14 12 10 10 9 9 10 13 15 17 20 31 59 84 95 100 100 98 100 100

GFSGL_500_rhum_123.txt.gz
RH
13 17 31 39 37 37 47 49 58 49 54 67 56 52 77 54 36 33 36 32 21 22 16 21 18 14 14 16 16 18 14 19 25 28 19 20 32 34 26 30 13 10 9
11 12 14 24 27 26 26 27 42 46 34 29 38 47 79 74 50 32 50 45 56 49 45 48 44 26 26 30 38 47 45 42 42 48 49 49 41 39 43 24 20 23 23
14 15 12 10 10 12 15 15 15 17 22 27 26 36 50 78 74 58 58 73 78 72 72 68 67 55 54 48 50 40 48 50 54 60 58 55 52 43 43 43 28 23 28
22 22 29 19 12 10 10 11 12 13 14 14 17 19 31 37 50 62 73 79 78 81 79 82 81 82 83 91 90 81 84 76 75 75 60 53 50 47 48 48 51 53 48
28 39 30 32 14 13 14 16 38 31 28 19 14 14 17 17 21 28 36 54 64 68 74 68 80 85 87 85 82 82 77 78 83 80 76 75 70 71 62 69 44 46 50
47 68 63 54 24 32 27 34 52 54 61 68 49 14 14 15 15 15 17 47 62 67 62 53 72 84 85 76 71 53 53 76 81 76 69 68 79 86 82 74 68 66 65
46 76 76 95 67 64 67 93 88 74 80 76 64 69 44 15 40 46 44 17 29 58 73 47 75 78 85 83 75 64 63 61 64 73 78 77 71 61 59 62 62 65 68
68 68 69 70 99 88 89 98 97 98 96 98 96 96 95 46 57 90 88 91 44 52 70 76 62 69 85 78 68 71 64 86 84 71 58 52 53 59 63 68 66 63 63
95 97 98 99 99 100 95 97 97 96 94 99 98 100 96 93 95 97 95 94 98 88 84 83 97 92 91 59 55 54 62 77 84 90 94 94 90 75 73 79 83 82 75
97 98 97 97 97 98 96 95 97 94 96 99 92 98 96 100 97 97 98 97 98 95 95 96 98 100 96 72 84 96 93 91 92 91 93 96 96 91 93 93 92 92 91
92 94 97 93 97 95 96 97 97 96 97 95 97 97 96 98 96 100 98 95 98 98 97 98 99 94 96 96 97 96 94 94 96 96 92 86 83 88 92 90 90 84 83
92 96 94 90 79 91 92 97 97 98 96 97 97 97 96 96 95 98 99 97 98 97 97 97 98 99 98 97 82 88 86 86 78 77 81 82 83 85 84 60 59 84 86
53 50 54 71 56 45 62 82 87 96 91 96 97 98 96 97 94 94 97 96 99 96 96 95 97 95 95 91 85 57 47 48 47 44 46 67 90 76 70 68 82 89 95
47 38 36 25 19 19 61 60 54 74 71 96 96 94 96 96 95 95 96 94 92 94 92 92 91 85 73 57 51 48 46 44 42 40 42 43 42 46 50 58 73 80 79
45 41 32 27 28 34 43 90 87 91 94 97 94 95 94 92 97 92 82 87 96 98 94 96 92 71 68 65 61 62 64 65 69 66 61 56 51 47 40 33 34 41 50
33 33 32 29 29 33 44 55 72 61 65 92 99 95 96 92 89 96 86 84 79 96 94 97 97 88 79 73 71 72 73 76 78 76 76 69 58 52 53 47 29 22 22
26 24 23 26 29 30 34 36 30 29 42 46 72 80 66 96 95 78 90 96 94 93 89 85 80 75 88 78 72 75 85 82 86 93 72 62 63 57 55 62 70 55 32
33 33 30 28 33 32 30 29 27 24 24 22 22 24 33 38 40 42 42 37 34 38 39 41 45 54 53 70 49 37 48 60 61 92 84 45 72 96 87 95 98 100 96
15 15 17 19 21 20 20 23 25 26 27 28 32 34 33 34 36 38 40 40 39 38 46 38 71 81 95 63 45 56 97 90 67 55 97 98 75 80 96 97 94 98 96
16 17 17 18 20 22 21 25 27 27 34 42 44 42 42 42 43 47 50 51 55 58 64 72 62 55 64 71 87 76 75 78 95 94 88 98 97 98 100 98 97 97 99
16 24 26 25 23 22 20 18 20 24 27 30 33 35 35 37 41 47 58 71 76 81 84 88 90 81 76 78 81 89 92 94 97 98 97 95 95 95 95 95 96 97 98
5 6 8 9 10 11 12 14 14 14 14 16 20 22 23 24 23 21 20 18 17 17 16 17 16 16 16 17 17 18 14 15 19 26 43 52 51 61 72 88 94 96 96
15 14 16 20 26 30 34 38 38 36 37 42 45 43 38 35 36 40 39 39 41 41 38 40 40 38 36 34 34 35 34 30 27 27 27 26 25 24 23 22 19 19 20
38 42 47 49 52 52 53 55 53 53 55 51 39 22 11 7 12 12 18 28 37 43 48 50 52 52 51 50 48 47 45 44 43 40 35 29 23 19 17 14 13 13 15
42 44 44 46 48 47 48 52 47 30 13 8 6 7 7 13 26 28 24 27 29 27 27 27 28 29 28 28 28 28 28 29 28 26 24 21 18 16 14 12 11 11 11
50 48 49 51 52 48 35 22 13 8 7 6 7 8 11 14 15 17 18 16 14 12 11 11 11 11 13 14 15 15 17 18 17 15 20 28 32 34 32 31 30 29 28